Regional Weather Roundup
Issued by NWS Sioux Falls, SD

Home | Current Version | Previous Version | Text Only | Print | Product List | Glossary On
Versions: 1 2 3 4 5 6 7 8 9 10 11 12 13 14 15 16 17 18 19 20 21 22 23 24 25 26 27 28 29 30 31 32 33 34 35 36 37 38 39 40 41 42 43 44 45 46 47 48 49 50
000
ASUS43 KFSD 190110
RWRFSD

WEATHER ROUNDUP FOR SE SOUTH DAKOTA/SW MINNESOTA/NW IOWA
NATIONAL WEATHER SERVICE SIOUX FALLS SD
800 PM CDT FRI APR 18 2014

NOTE: "FAIR" INDICATES FEW OR NO CLOUDS BELOW 12,000 FEET WITH NO
SIGNIFICANT WEATHER AND OR OBSTRUCTIONS TO VISIBILITY.


SDZ038>040-050-052>070-190200-
SOUTHEAST SOUTH DAKOTA

CITY           SKY/WX    TMP DP  RH WIND       PRES   REMARKS
CHAMBERLAIN      N/A     69  41  36 S28G38    29.72F
HURON          CLOUDY    66  40  38 S20G31    29.78F
MADISON        FAIR      59  36  41 S21G33    29.92F
MITCHELL       CLOUDY    67  41  38 S22G33    29.84F
SIOUX FALLS    CLOUDY    61  36  39 S23       29.96F
WINNER         FAIR      71  41  33 S30G43    29.72F
YANKTON        CLOUDY    64  39  39 S18       29.94S
$$

MNZ071-072-080-081-089-090-097-098-190200-
SOUTHWEST MINNESOTA

CITY           SKY/WX    TMP DP  RH WIND       PRES   REMARKS
FAIRMONT       CLEAR     54  30  40 SE16      30.14S
JACKSON        PTCLDY    55  30  38 SE14G20   30.10S
LUVERNE        CLOUDY    61  36  39 S15       30.00F
MARSHALL       MOCLDY    57  34  41 SE20      30.01F
MONTEVIDEO     MOCLDY    48  39  71 SE20      30.05F
PIPESTONE      CLOUDY    57  36  44 S16       29.98F
REDWOOD FALLS  PTCLDY    52  37  56 SE18      30.07F
TRACY          MOCLDY    55  36  48 SE16G22   30.04S
WINDOM         PTCLDY    55  30  38 SE17      30.07F
WORTHINGTON    CLOUDY    57  30  35 SE17G23   30.06F
$$

IAZ001>003-012>014-020>022-031-032-NEZ013-014-SDZ071-190200-
NORTHWEST IOWA

CITY           SKY/WX    TMP DP  RH WIND       PRES   REMARKS
CHEROKEE       MOCLDY    60  32  34 S13G21    30.06F
DENISON        PTCLDY    61  34  36 SE12G20   30.08S
ESTHERVILLE    CLEAR     54  32  43 SE17      30.10F
LE MARS        MOCLDY    63  37  39 SE14G22   30.02S
ORANGE CITY    CLOUDY    63  34  34 S12       30.02F
SHELDON        CLOUDY    59  34  38 SE18G24   30.03F
SIOUX CITY     MOCLDY    64  38  38 SE15      30.02F
SPENCER        MOCLDY    58  32  37 SE17      30.08S
STORM LAKE     MOCLDY    59  30  33 SE16      30.08F
$$

ABBREVIATIONS USED IN REMARKS
   TC - TEMPERATURE IN CELSIUS
  WCI - WIND CHILL INDEX
   HX - HEAT INDEX
  VSB - VISIBILITY




USA.gov is the U.S. government's official web portal to all federal, state and local government web resources and services.